30.06.2024;16:00;83
30.06.2024;15:00;82
30.06.2024;14:00;88
30.06.2024;13:00;100
30.06.2024;12:00;99
30.06.2024;11:00;97
30.06.2024;10:00;97
30.06.2024;09:00;96
30.06.2024;08:00;91
30.06.2024;07:00;91
30.06.2024;06:00;72
30.06.2024;05:00;19
30.06.2024;04:00;26
30.06.2024;03:00;28
30.06.2024;02:00;33
30.06.2024;01:00;50
30.06.2024;00:00;41
29.06.2024;23:00;30
29.06.2024;22:00;23
29.06.2024;21:00;36
29.06.2024;20:00;55
29.06.2024;19:00;79
29.06.2024;18:00;91
29.06.2024;17:00;98
29.06.2024;16:00;98
29.06.2024;15:00;98
29.06.2024;14:00;100
29.06.2024;13:00;99
29.06.2024;12:00;92
29.06.2024;11:00;75
29.06.2024;10:00;59
29.06.2024;09:00;38
29.06.2024;08:00;18
29.06.2024;07:00;6
29.06.2024;06:00;5
29.06.2024;05:00;3
29.06.2024;04:00;7
29.06.2024;03:00;8
29.06.2024;02:00;10
29.06.2024;01:00;15
29.06.2024;00:00;18
28.06.2024;23:00;28
28.06.2024;22:00;29
28.06.2024;21:00;63
28.06.2024;20:00;99
28.06.2024;19:00;101
28.06.2024;18:00;93
28.06.2024;17:00;110
